星链-35442(STARLINK-35442)

导读

STARLINK-35442是美国SpaceX公司星链星座中的一颗卫星,于2025年11月6日由美国发射升空。星链项目旨在构建全球卫星互联网星座,为全球各地提供高速互联网接入服务,该卫星的入轨将进一步扩充星链星座规模,助力其全球覆盖与服务能力提升。

Basic Information
目录编号:
66319
目录名称:
STARLINK-35442
国际标识:
2025-253A
轨道中心:
EARTH
卫星名称:
星链-35442
卫星全名:
星链-35442(STARLINK-35442)
卫星状态:
在轨 (已飞行302 天)
发射日期:
2025-11-06 UTC
国别 :
美国 (US)
星等 :
--
Orbit Information
数据来源 国际轨道数据 AOE轨道数据
星历时间 2026-09-04T09:59:32+0800
11小时前
查看轨道信息
2026-08-31T02:00:00+0800
4天前
查看轨道信息
半长轴 6861.176km 6861.23km
偏心率 0.0001065 0.0001526
轨道倾角 43.000° 43.002°
近地点辐角 277.026° 284.280°
升交点赤经 285.370° 309.846°
平近点角 83.047° 339.431°
近地点 482.308km 482.045km
远地点 483.77km 484.141km
周期 94.267分钟 94.268分钟
每日圈数 15.275837 15.275656
Detailed Information
固有亮度:
5
最大亮度:
2.5
卫星平台:
Starlink V1.0
覆盖范围:
全球
运营商:
太空探索技术公司
运营商所在国:
美国
制造商(研发单位):
太空探索技术公司
制造商所在国:
美国
使用方式:
暂无
Satellite Introduction
Starlink 计划是 SpaceX 推出的全球卫星互联网项目,通过发射低轨道卫星,为全球尤其是偏远地区提供高速、低延迟的互联网服务。自 2019 年起,Starlink 已部署数千颗卫星,旨在缩小全球数字鸿沟,推动互联网普及。该项目还为军事、航空等行业提供通信支持,带来广泛经济效益。
2D Orbit Map
3D Orbit Map
Orbit Altitude Analysis Chart
Orbit Inclination Analysis Chart
Orbit Comprehensive Analysis Chart
View Comprehensive Chart